When you browse on this site, cookies collect data to enhance your experience and personalize the content and advertising you see.
Visit our Privacy Policy to learn more. By continuing to use the site, you agree to this use of cookies and data.
  • In Czech Republic
  • List of Countries
  • For 7 days
  • Water Temperature
  • Satellite Maps
  • Weather Map
  • Weather Widgets
  • user-avatar
    Login

    Hourly Weather Cayenne

    Today, 21 July, Sunday

    Time Temperature Precipitation Wind Pressure Humidity
    00:00 +25°C° 0.2 mm 4 mps 759 mmHg 95%
    01:00 +25°C° 0.8 mm 4 mps 758 mmHg 96%
    02:00 +25°C° 0.8 mm 3 mps 758 mmHg 96%
    03:00 +25°C° 0.8 mm 3 mps 758 mmHg 96%
    04:00 +25°C° 1.4 mm 3 mps 758 mmHg 97%
    05:00 +25°C° 1.4 mm 3 mps 757 mmHg 97%
    06:00 +25°C° 1.4 mm 3 mps 757 mmHg 97%
    07:00 +26°C° 1 mm 4 mps 758 mmHg 96%
    08:00 +27°C° 1 mm 4 mps 758 mmHg 95%
    09:00 +27°C° 1 mm 4 mps 759 mmHg 94%
    10:00 +28°C° 0.6 mm 4 mps 759 mmHg 92%
    11:00 +28°C° 0.6 mm 4 mps 759 mmHg 90%
    12:00 +29°C° 0.6 mm 4 mps 759 mmHg 89%
    13:00 +29°C° 0.5 mm 4 mps 758 mmHg 88%
    14:00 +29°C° 0.5 mm 4 mps 758 mmHg 87%
    15:00 +29°C° 0.5 mm 4 mps 757 mmHg 87%
    16:00 +29°C° 0.4 mm 4 mps 757 mmHg 89%
    17:00 +28°C° 0.4 mm 4 mps 757 mmHg 92%
    18:00 +27°C° 0.4 mm 4 mps 757 mmHg 94%
    19:00 +27°C° 0.2 mm 4 mps 757 mmHg 95%
    20:00 +26°C° 0.2 mm 4 mps 758 mmHg 96%
    21:00 +25°C° 0.2 mm 3 mps 758 mmHg 96%
    22:00 +25°C° 0.6 mm 3 mps 759 mmHg 97%
    23:00 +25°C° 0.6 mm 3 mps 759 mmHg 97%

    Tomorrow, 22 July, Monday

    Time Temperature Precipitation Wind Pressure Humidity
    00:00 +25°C° 0.6 mm 3 mps 759 mmHg 97%
    01:00 +25°C° 0.9 mm 3 mps 759 mmHg 97%
    02:00 +25°C° 0.9 mm 3 mps 758 mmHg 97%
    03:00 +25°C° 0.9 mm 3 mps 758 mmHg 98%
    04:00 +25°C° 0.8 mm 3 mps 758 mmHg 98%
    05:00 +24°C° 0.8 mm 3 mps 758 mmHg 98%
    06:00 +24°C° 0.8 mm 3 mps 758 mmHg 98%
    07:00 +25°C° 0.7 mm 3 mps 758 mmHg 96%
    08:00 +26°C° 0.7 mm 3 mps 758 mmHg 95%
    09:00 +27°C° 0.7 mm 2 mps 759 mmHg 93%
    10:00 +28°C° 0.8 mm 2 mps 759 mmHg 93%
    11:00 +28°C° 0.8 mm 2 mps 759 mmHg 92%
    12:00 +28°C° 0.8 mm 2 mps 759 mmHg 92%
    13:00 +29°C° 1.1 mm 3 mps 758 mmHg 91%
    14:00 +29°C° 1.1 mm 3 mps 758 mmHg 89%
    15:00 +29°C° 1.1 mm 3 mps 757 mmHg 88%
    16:00 +28°C° 0.9 mm 2 mps 757 mmHg 90%
    17:00 +27°C° 0.9 mm 2 mps 757 mmHg 92%
    18:00 +26°C° 0.9 mm 2 mps 757 mmHg 94%
    19:00 +26°C° 0.8 mm 2 mps 757 mmHg 94%
    20:00 +25°C° 0.8 mm 2 mps 758 mmHg 95%
    21:00 +25°C° 0.8 mm 2 mps 758 mmHg 95%
    22:00 +25°C° 0.8 mm 2 mps 758 mmHg 95%
    23:00 +25°C° 0.8 mm 2 mps 759 mmHg 95%

    Day after tomorrow, 23 July, Tuesday

    Time Temperature Precipitation Wind Pressure Humidity
    00:00 +25°C° 0.8 mm 2 mps 759 mmHg 95%
    01:00 +24°C° 0.7 mm 2 mps 758 mmHg 95%
    02:00 +24°C° 0.7 mm 2 mps 758 mmHg 96%
    03:00 +24°C° 0.7 mm 2 mps 757 mmHg 96%
    04:00 +24°C° 0.4 mm 2 mps 757 mmHg 96%
    05:00 +24°C° 0.4 mm 2 mps 758 mmHg 96%
    06:00 +24°C° 0.4 mm 2 mps 758 mmHg 96%
    07:00 +25°C° 0.2 mm 1 mps 758 mmHg 94%
    08:00 +26°C° 0.2 mm 1 mps 759 mmHg 91%
    09:00 +28°C° 0.2 mm 1 mps 759 mmHg 89%
    10:00 +29°C° 0.4 mm 1 mps 759 mmHg 82%
    11:00 +30°C° 0.4 mm 1 mps 759 mmHg 75%
    12:00 +31°C° 0.4 mm 2 mps 759 mmHg 69%
    13:00 +31°C° 0.4 mm 2 mps 758 mmHg 70%
    14:00 +31°C° 0.4 mm 2 mps 758 mmHg 72%
    15:00 +31°C° 0.4 mm 3 mps 757 mmHg 74%
    16:00 +30°C° 0.2 mm 3 mps 757 mmHg 76%
    17:00 +29°C° 0.2 mm 3 mps 757 mmHg 78%
    18:00 +28°C° 0.2 mm 3 mps 757 mmHg 81%
    19:00 +28°C° 0 mm 3 mps 757 mmHg 83%
    20:00 +27°C° 0 mm 3 mps 757 mmHg 86%
    21:00 +26°C° 0 mm 3 mps 758 mmHg 89%
    22:00 +25°C° 0 mm 3 mps 758 mmHg 90%
    23:00 +25°C° 0 mm 3 mps 758 mmHg 90%

    24 July, Wednesday

    Time Temperature Precipitation Wind Pressure Humidity
    00:00 +25°C° 0 mm 3 mps 758 mmHg 91%
    01:00 +25°C° 0.2 mm 3 mps 758 mmHg 93%
    02:00 +25°C° 0.2 mm 2 mps 757 mmHg 94%
    03:00 +24°C° 0.2 mm 2 mps 757 mmHg 96%
    04:00 +24°C° 0.2 mm 2 mps 757 mmHg 96%
    05:00 +24°C° 0.2 mm 2 mps 757 mmHg 97%
    06:00 +24°C° 0.2 mm 2 mps 757 mmHg 97%
    07:00 +25°C° 0.2 mm 2 mps 758 mmHg 92%
    08:00 +27°C° 0.2 mm 2 mps 758 mmHg 87%
    09:00 +28°C° 0.2 mm 2 mps 758 mmHg 83%
    10:00 +29°C° 0.6 mm 3 mps 758 mmHg 77%
    11:00 +30°C° 0.6 mm 3 mps 758 mmHg 71%
    12:00 +31°C° 0.6 mm 3 mps 758 mmHg 65%
    13:00 +31°C° 0.3 mm 3 mps 758 mmHg 67%
    14:00 +31°C° 0.3 mm 3 mps 757 mmHg 69%
    15:00 +31°C° 0.3 mm 3 mps 757 mmHg 71%
    16:00 +29°C° 0.4 mm 3 mps 757 mmHg 78%
    17:00 +28°C° 0.4 mm 3 mps 757 mmHg 85%
    18:00 +27°C° 0.4 mm 3 mps 757 mmHg 92%
    19:00 +26°C° 0.3 mm 3 mps 757 mmHg 93%
    20:00 +26°C° 0.3 mm 3 mps 758 mmHg 95%
    21:00 +25°C° 0.3 mm 3 mps 758 mmHg 96%
    22:00 +25°C° 0.3 mm 3 mps 758 mmHg 96%
    23:00 +25°C° 0.3 mm 3 mps 758 mmHg 96%

    25 July, Thursday

    Time Temperature Precipitation Wind Pressure Humidity
    00:00 +25°C° 0.3 mm 3 mps 758 mmHg 96%
    01:00 +24°C° 0.8 mm 3 mps 758 mmHg 97%
    02:00 +24°C° 0.8 mm 2 mps 757 mmHg 97%
    03:00 +24°C° 0.8 mm 2 mps 757 mmHg 97%
    04:00 +24°C° 0.8 mm 2 mps 757 mmHg 97%
    05:00 +24°C° 0.8 mm 2 mps 757 mmHg 97%
    06:00 +24°C° 0.8 mm 2 mps 757 mmHg 97%
    07:00 +25°C° 0.4 mm 2 mps 758 mmHg 95%
    08:00 +26°C° 0.4 mm 2 mps 758 mmHg 93%
    09:00 +27°C° 0.4 mm 2 mps 759 mmHg 91%
    10:00 +28°C° 0.9 mm 2 mps 759 mmHg 89%
    11:00 +29°C° 0.9 mm 2 mps 758 mmHg 87%
    12:00 +29°C° 0.9 mm 1 mps 758 mmHg 85%
    13:00 +29°C° 0.7 mm 2 mps 758 mmHg 85%
    14:00 +29°C° 0.7 mm 2 mps 757 mmHg 85%
    15:00 +29°C° 0.7 mm 2 mps 757 mmHg 85%
    16:00 +29°C° 0.3 mm 2 mps 757 mmHg 86%
    17:00 +28°C° 0.3 mm 2 mps 757 mmHg 87%
    18:00 +28°C° 0.3 mm 2 mps 757 mmHg 88%
    19:00 +27°C° 0 mm 2 mps 757 mmHg 89%
    20:00 +26°C° 0 mm 2 mps 758 mmHg 90%
    21:00 +25°C° 0 mm 2 mps 758 mmHg 91%
    22:00 +25°C° 0.3 mm 1 mps 758 mmHg 92%
    23:00 +25°C° 0.3 mm 1 mps 758 mmHg 93%

    26 July, Friday

    Time Temperature Precipitation Wind Pressure Humidity
    00:00 +25°C° 0.3 mm 1 mps 758 mmHg 94%
    01:00 +24°C° 0.6 mm 1 mps 758 mmHg 95%
    02:00 +24°C° 0.6 mm 1 mps 757 mmHg 96%
    03:00 +24°C° 0.6 mm 1 mps 757 mmHg 97%
    04:00 +24°C° 0.4 mm 1 mps 757 mmHg 97%
    05:00 +24°C° 0.4 mm 1 mps 757 mmHg 97%
    06:00 +24°C° 0.4 mm 1 mps 757 mmHg 97%
    07:00 +25°C° 0.1 mm 1 mps 758 mmHg 95%
    08:00 +26°C° 0.1 mm 1 mps 758 mmHg 93%
    09:00 +27°C° 0.1 mm 2 mps 759 mmHg 92%
    10:00 +29°C° 0.2 mm 1 mps 759 mmHg 80%
    11:00 +31°C° 0.2 mm 1 mps 759 mmHg 69%
    12:00 +33°C° 0.2 mm 1 mps 758 mmHg 57%
    13:00 +32°C° 0.7 mm 1 mps 758 mmHg 68%
    14:00 +31°C° 0.7 mm 1 mps 757 mmHg 78%
    15:00 +29°C° 0.7 mm 1 mps 756 mmHg 89%
    16:00 +29°C° 0.5 mm 1 mps 756 mmHg 89%
    17:00 +28°C° 0.5 mm 1 mps 756 mmHg 90%
    18:00 +28°C° 0.5 mm 1 mps 756 mmHg 91%
    19:00 +27°C° 0 mm 1 mps 757 mmHg 91%
    20:00 +26°C° 0 mm 1 mps 758 mmHg 92%
    21:00 +25°C° 0 mm 1 mps 758 mmHg 92%
    22:00 +25°C° 0 mm 2 mps 758 mmHg 93%
    23:00 +25°C° 0 mm 2 mps 759 mmHg 93%
    Show more